Location: ??????
(55.6500°N, 37.8000°E)
Time: 04:32:30
(UTC+00:00)

YAOGAN 11 - Pass Details

Date: 14 April 2024
Orbit: 606 x 659 km, 98.4° (Epoch: 20 May)

Event Time Altitude Azimuth Distance (km) Brightness Sun altitude
Rises 01:43:20 0° 161° (SSE) 2,959 7.5 -6.4°
Reaches altitude 10° 01:45:31 10° 161° (SSE) 2,059 6.7 -6.1°
Maximum altitude 01:50:02 88° 70° (ENE) 667 4.3 -5.5°
Drops below altitude 10° 01:54:37 10° 344° (NNW) 2,091 6.9 -4.9°
Sets 01:56:51 0° 345° (NNW) 3,009 7.7 -4.6°
